Year,Month,Day,Hour,Minute,Value (Times are PST for temperature in C)
2021,08,12,00,00,19.90
2021,08,12,00,01,19.90
2021,08,12,00,02,19.90
2021,08,12,00,03,19.90
2021,08,12,00,04,19.90
2021,08,12,00,05,19.90
2021,08,12,00,06,19.90
2021,08,12,00,07,19.90
2021,08,12,00,08,19.80
2021,08,12,00,09,19.80
2021,08,12,00,10,19.80
2021,08,12,00,11,19.80
2021,08,12,00,12,19.80
2021,08,12,00,13,19.80
2021,08,12,00,14,19.80
2021,08,12,00,15,19.70
2021,08,12,00,16,19.80
2021,08,12,00,17,19.70
2021,08,12,00,18,19.70
2021,08,12,00,19,19.70
2021,08,12,00,20,19.70
2021,08,12,00,21,19.70
2021,08,12,00,22,19.70
2021,08,12,00,23,19.70
2021,08,12,00,24,19.60
2021,08,12,00,25,19.60
2021,08,12,00,26,19.60
2021,08,12,00,27,19.60
2021,08,12,00,28,19.60
2021,08,12,00,29,19.60
2021,08,12,00,30,19.60
2021,08,12,00,31,19.60
2021,08,12,00,32,19.60
2021,08,12,00,33,19.60
2021,08,12,00,34,19.50
2021,08,12,00,35,19.50
2021,08,12,00,36,19.50
2021,08,12,00,37,19.50
2021,08,12,00,38,19.50
2021,08,12,00,39,19.40
2021,08,12,00,40,19.40
2021,08,12,00,41,19.40
2021,08,12,00,42,19.40
2021,08,12,00,43,19.40
2021,08,12,00,44,19.40
2021,08,12,00,45,19.40
2021,08,12,00,46,19.40
2021,08,12,00,47,19.40
2021,08,12,00,48,19.40
2021,08,12,00,49,19.40
2021,08,12,00,50,19.40
2021,08,12,00,51,19.40
2021,08,12,00,52,19.40
2021,08,12,00,53,19.40
2021,08,12,00,54,19.40
2021,08,12,00,55,19.40
2021,08,12,00,56,19.40
2021,08,12,00,57,19.40
2021,08,12,00,58,19.40
2021,08,12,00,59,19.40
2021,08,12,01,00,19.30
2021,08,12,01,01,19.30
2021,08,12,01,02,19.30
2021,08,12,01,03,19.30
2021,08,12,01,04,19.30
2021,08,12,01,05,19.30
2021,08,12,01,06,19.30
2021,08,12,01,07,19.30
2021,08,12,01,08,19.30
2021,08,12,01,09,19.20
2021,08,12,01,10,19.20
2021,08,12,01,11,19.20
2021,08,12,01,12,19.20
2021,08,12,01,13,19.20
2021,08,12,01,14,19.20
2021,08,12,01,15,19.20
2021,08,12,01,16,19.20
2021,08,12,01,17,19.10
2021,08,12,01,18,19.10
2021,08,12,01,19,19.10
2021,08,12,01,20,19.10
2021,08,12,01,21,19.10
2021,08,12,01,22,19.10
2021,08,12,01,23,19.10
2021,08,12,01,24,19.10
2021,08,12,01,25,19.00
2021,08,12,01,26,19.00
2021,08,12,01,27,18.90
2021,08,12,01,28,18.90
2021,08,12,01,29,18.90
2021,08,12,01,30,18.90
2021,08,12,01,31,18.80
2021,08,12,01,32,18.80
2021,08,12,01,33,18.80
2021,08,12,01,34,18.70
2021,08,12,01,35,18.70
2021,08,12,01,36,18.70
2021,08,12,01,37,18.70
2021,08,12,01,38,18.60
2021,08,12,01,39,18.60
2021,08,12,01,40,18.60
2021,08,12,01,41,18.60
2021,08,12,01,42,18.60
2021,08,12,01,43,18.60
2021,08,12,01,44,18.60
2021,08,12,01,45,18.60
2021,08,12,01,46,18.60
2021,08,12,01,47,18.60
2021,08,12,01,48,18.50
2021,08,12,01,49,18.50
2021,08,12,01,50,18.50
2021,08,12,01,51,18.50
2021,08,12,01,52,18.50
2021,08,12,01,53,18.50
2021,08,12,01,54,18.40
2021,08,12,01,55,18.40
2021,08,12,01,56,18.40
2021,08,12,01,57,18.40
2021,08,12,01,58,18.40
2021,08,12,01,59,18.40
2021,08,12,02,00,18.40
2021,08,12,02,01,18.40
2021,08,12,02,02,18.40
2021,08,12,02,03,18.40
2021,08,12,02,04,18.40
2021,08,12,02,05,18.50
2021,08,12,02,06,18.50
2021,08,12,02,07,18.50
2021,08,12,02,08,18.50
2021,08,12,02,09,18.60
2021,08,12,02,10,18.60
2021,08,12,02,11,18.60
2021,08,12,02,12,18.60
2021,08,12,02,13,18.60
2021,08,12,02,14,18.50
2021,08,12,02,15,18.50
2021,08,12,02,16,18.50
2021,08,12,02,17,18.40
2021,08,12,02,18,18.40
2021,08,12,02,19,18.40
2021,08,12,02,20,18.40
2021,08,12,02,21,18.40
2021,08,12,02,22,18.40
2021,08,12,02,23,18.40
2021,08,12,02,24,18.40
2021,08,12,02,25,18.30
2021,08,12,02,26,18.30
2021,08,12,02,27,18.30
2021,08,12,02,28,18.30
2021,08,12,02,29,18.30
2021,08,12,02,30,18.30
2021,08,12,02,31,18.30
2021,08,12,02,32,18.30
2021,08,12,02,33,18.30
2021,08,12,02,34,18.30
2021,08,12,02,35,18.30
2021,08,12,02,36,18.30
2021,08,12,02,37,18.30
2021,08,12,02,38,18.30
2021,08,12,02,39,18.30
2021,08,12,02,40,18.30
2021,08,12,02,41,18.30
2021,08,12,02,42,18.30
2021,08,12,02,43,18.30
2021,08,12,02,44,18.30
2021,08,12,02,45,18.30
2021,08,12,02,46,18.30
2021,08,12,02,47,18.40
2021,08,12,02,48,18.30
2021,08,12,02,49,18.30
2021,08,12,02,50,18.30
2021,08,12,02,51,18.30
2021,08,12,02,52,18.30
2021,08,12,02,53,18.30
2021,08,12,02,54,18.30
2021,08,12,02,55,18.30
2021,08,12,02,56,18.30
2021,08,12,02,57,18.20
2021,08,12,02,58,18.20
2021,08,12,02,59,18.20
2021,08,12,03,00,18.30
2021,08,12,03,01,18.30
2021,08,12,03,02,18.20
2021,08,12,03,03,18.20
2021,08,12,03,04,18.20
2021,08,12,03,05,18.20
2021,08,12,03,06,18.20
2021,08,12,03,07,18.20
2021,08,12,03,08,18.20
2021,08,12,03,09,18.10
2021,08,12,03,10,18.10
2021,08,12,03,11,18.10
2021,08,12,03,12,18.20
2021,08,12,03,13,18.20
2021,08,12,03,14,18.20
2021,08,12,03,15,18.20
2021,08,12,03,16,18.10
2021,08,12,03,17,18.10
2021,08,12,03,18,18.10
2021,08,12,03,19,18.10
2021,08,12,03,20,18.10
2021,08,12,03,21,18.10
2021,08,12,03,22,18.10
2021,08,12,03,23,18.00
2021,08,12,03,24,18.00
2021,08,12,03,25,18.00
2021,08,12,03,26,18.00
2021,08,12,03,27,17.90
2021,08,12,03,28,17.90
2021,08,12,03,29,17.90
2021,08,12,03,30,17.90
2021,08,12,03,31,17.90
2021,08,12,03,32,17.80
2021,08,12,03,33,17.80
2021,08,12,03,34,17.80
2021,08,12,03,35,17.80
2021,08,12,03,36,17.80
2021,08,12,03,37,17.80
2021,08,12,03,38,17.80
2021,08,12,03,39,17.80
2021,08,12,03,40,17.80
2021,08,12,03,41,17.80
2021,08,12,03,42,17.70
2021,08,12,03,43,17.70
2021,08,12,03,44,17.70
2021,08,12,03,45,17.70
2021,08,12,03,46,17.70
2021,08,12,03,47,17.70
2021,08,12,03,48,17.70
2021,08,12,03,49,17.70
2021,08,12,03,50,17.60
2021,08,12,03,51,17.60
2021,08,12,03,52,17.60
2021,08,12,03,53,17.60
2021,08,12,03,54,17.60
2021,08,12,03,55,17.60
2021,08,12,03,56,17.60
2021,08,12,03,57,17.60
2021,08,12,03,58,17.60
2021,08,12,03,59,17.60
2021,08,12,04,00,17.60
2021,08,12,04,01,17.60
2021,08,12,04,02,17.70
2021,08,12,04,03,17.70
2021,08,12,04,04,17.70
2021,08,12,04,05,17.70
2021,08,12,04,06,17.70
2021,08,12,04,07,17.70
2021,08,12,04,08,17.70
2021,08,12,04,09,17.70
2021,08,12,04,10,17.70
2021,08,12,04,11,17.80
2021,08,12,04,12,17.80
2021,08,12,04,13,17.80
2021,08,12,04,14,17.80
2021,08,12,04,15,17.80
2021,08,12,04,16,17.80
2021,08,12,04,17,17.80
2021,08,12,04,18,17.80
2021,08,12,04,19,17.80
2021,08,12,04,20,17.80
2021,08,12,04,21,17.80
2021,08,12,04,22,17.80
2021,08,12,04,23,17.80
2021,08,12,04,24,17.80
2021,08,12,04,25,17.80
2021,08,12,04,26,17.80
2021,08,12,04,27,17.80
2021,08,12,04,28,17.80
2021,08,12,04,29,17.80
2021,08,12,04,30,17.80
2021,08,12,04,31,17.90
2021,08,12,04,32,17.90
2021,08,12,04,33,17.90
2021,08,12,04,34,17.90
2021,08,12,04,35,18.00
2021,08,12,04,36,18.00
2021,08,12,04,37,18.00
2021,08,12,04,38,18.00
2021,08,12,04,39,18.00
2021,08,12,04,40,18.00
2021,08,12,04,41,18.00
2021,08,12,04,42,18.00
2021,08,12,04,43,18.00
2021,08,12,04,44,18.00
2021,08,12,04,45,18.00
2021,08,12,04,46,18.00
2021,08,12,04,47,18.00
2021,08,12,04,48,18.00
2021,08,12,04,49,17.90
2021,08,12,04,50,17.90
2021,08,12,04,51,17.90
2021,08,12,04,52,18.00
2021,08,12,04,53,18.00
2021,08,12,04,54,18.00
2021,08,12,04,55,18.00
2021,08,12,04,56,18.00
2021,08,12,04,57,18.00
2021,08,12,04,58,18.00
2021,08,12,04,59,18.00
2021,08,12,05,00,18.00
2021,08,12,05,01,17.90
2021,08,12,05,02,17.90
2021,08,12,05,03,17.90
2021,08,12,05,04,17.90
2021,08,12,05,05,17.90
2021,08,12,05,06,17.90
2021,08,12,05,07,17.90
2021,08,12,05,08,17.90
2021,08,12,05,09,17.80
2021,08,12,05,10,17.80
2021,08,12,05,11,17.80
2021,08,12,05,12,17.80
2021,08,12,05,13,17.80
2021,08,12,05,14,17.80
2021,08,12,05,15,17.80
2021,08,12,05,16,17.80
2021,08,12,05,17,17.80
2021,08,12,05,18,17.90
2021,08,12,05,19,17.80
2021,08,12,05,20,17.80
2021,08,12,05,21,17.80
2021,08,12,05,22,17.80
2021,08,12,05,23,17.80
2021,08,12,05,24,17.80
2021,08,12,05,25,17.80
2021,08,12,05,26,17.80
2021,08,12,05,27,17.80
2021,08,12,05,28,17.80
2021,08,12,05,29,17.70
2021,08,12,05,30,17.70
2021,08,12,05,31,17.70
2021,08,12,05,32,17.70
2021,08,12,05,33,17.70
2021,08,12,05,34,17.70
2021,08,12,05,35,17.70
2021,08,12,05,36,17.70
2021,08,12,05,37,17.70
2021,08,12,05,38,17.70
2021,08,12,05,39,17.70
2021,08,12,05,40,17.70
2021,08,12,05,41,17.70
2021,08,12,05,42,17.70
2021,08,12,05,43,17.70
2021,08,12,05,44,17.70
2021,08,12,05,45,17.70
2021,08,12,05,46,17.70
2021,08,12,05,47,17.70
2021,08,12,05,48,17.70
2021,08,12,05,49,17.70
2021,08,12,05,50,17.70
2021,08,12,05,51,17.60
2021,08,12,05,52,17.60
2021,08,12,05,53,17.60
2021,08,12,05,54,17.60
2021,08,12,05,55,17.60
2021,08,12,05,56,17.60
2021,08,12,05,57,17.60
2021,08,12,05,58,17.60
2021,08,12,05,59,17.50
2021,08,12,06,00,17.50
2021,08,12,06,01,17.50
2021,08,12,06,02,17.50
2021,08,12,06,03,17.40
2021,08,12,06,04,17.40
2021,08,12,06,05,17.40
2021,08,12,06,06,17.40
2021,08,12,06,07,17.40
2021,08,12,06,08,17.40
2021,08,12,06,09,17.30
2021,08,12,06,10,17.30
2021,08,12,06,11,17.30
2021,08,12,06,12,17.30
2021,08,12,06,13,17.30
2021,08,12,06,14,17.30
2021,08,12,06,15,17.40
2021,08,12,06,16,17.40
2021,08,12,06,17,17.40
2021,08,12,06,18,17.40
2021,08,12,06,19,17.40
2021,08,12,06,20,17.40
2021,08,12,06,21,17.40
2021,08,12,06,22,17.40
2021,08,12,06,23,17.40
2021,08,12,06,24,17.40
2021,08,12,06,25,17.40
2021,08,12,06,26,17.40
2021,08,12,06,27,17.40
2021,08,12,06,28,17.40
2021,08,12,06,29,17.40
2021,08,12,06,30,17.40
2021,08,12,06,31,17.40
2021,08,12,06,32,17.40
2021,08,12,06,33,17.40
2021,08,12,06,34,17.40
2021,08,12,06,35,17.40
2021,08,12,06,36,17.40
2021,08,12,06,37,17.40
2021,08,12,06,38,17.40
2021,08,12,06,39,17.40
2021,08,12,06,40,17.40
2021,08,12,06,41,17.40
2021,08,12,06,42,17.40
2021,08,12,06,43,17.40
2021,08,12,06,44,17.40
2021,08,12,06,45,17.40
2021,08,12,06,46,17.40
2021,08,12,06,47,17.40
2021,08,12,06,48,17.40
2021,08,12,06,49,17.30
2021,08,12,06,50,17.30
2021,08,12,06,51,17.40
2021,08,12,06,52,17.40
2021,08,12,06,53,17.40
2021,08,12,06,54,17.40
2021,08,12,06,55,17.50
2021,08,12,06,56,17.50
2021,08,12,06,57,17.50
2021,08,12,06,58,17.50
2021,08,12,06,59,17.50
2021,08,12,07,00,17.60
2021,08,12,07,01,17.60
2021,08,12,07,02,17.60
2021,08,12,07,03,17.60
2021,08,12,07,04,17.60
2021,08,12,07,05,17.70
2021,08,12,07,06,17.70
2021,08,12,07,07,17.70
2021,08,12,07,08,17.70
2021,08,12,07,09,17.70
2021,08,12,07,10,17.80
2021,08,12,07,11,17.80
2021,08,12,07,12,17.80
2021,08,12,07,13,17.80
2021,08,12,07,14,17.90
2021,08,12,07,15,17.90
2021,08,12,07,16,17.90
2021,08,12,07,17,17.90
2021,08,12,07,18,17.90
2021,08,12,07,19,18.00
2021,08,12,07,20,18.00
2021,08,12,07,21,18.00
2021,08,12,07,22,18.10
2021,08,12,07,23,18.10
2021,08,12,07,24,18.10
2021,08,12,07,25,18.10
2021,08,12,07,26,18.10
2021,08,12,07,27,18.10
2021,08,12,07,28,18.20
2021,08,12,07,29,18.20
2021,08,12,07,30,18.20
2021,08,12,07,31,18.20
2021,08,12,07,32,18.30
2021,08,12,07,33,18.30
2021,08,12,07,34,18.30
2021,08,12,07,35,18.40
2021,08,12,07,36,18.40
2021,08,12,07,37,18.50
2021,08,12,07,38,18.50
2021,08,12,07,39,18.50
2021,08,12,07,40,18.60
2021,08,12,07,41,18.60
2021,08,12,07,42,18.60
2021,08,12,07,43,18.70
2021,08,12,07,44,18.70
2021,08,12,07,45,18.70
2021,08,12,07,46,18.80
2021,08,12,07,47,18.80
2021,08,12,07,48,18.80
2021,08,12,07,49,18.90
2021,08,12,07,50,18.80
2021,08,12,07,51,18.90
2021,08,12,07,52,18.90
2021,08,12,07,53,18.90
2021,08,12,07,54,18.90
2021,08,12,07,55,18.90
2021,08,12,07,56,19.00
2021,08,12,07,57,18.90
2021,08,12,07,58,19.00
2021,08,12,07,59,19.00
2021,08,12,08,00,19.10
2021,08,12,08,01,19.10
2021,08,12,08,02,19.20
2021,08,12,08,03,19.20
2021,08,12,08,04,19.20
2021,08,12,08,05,19.20
2021,08,12,08,06,19.20
2021,08,12,08,07,19.20
2021,08,12,08,08,19.30
2021,08,12,08,09,19.30
2021,08,12,08,10,19.30
2021,08,12,08,11,19.40
2021,08,12,08,12,19.40
2021,08,12,08,13,19.40
2021,08,12,08,14,19.50
2021,08,12,08,15,19.50
2021,08,12,08,16,19.60
2021,08,12,08,17,19.60
2021,08,12,08,18,19.60
2021,08,12,08,19,19.60
2021,08,12,08,20,19.70
2021,08,12,08,21,19.70
2021,08,12,08,22,19.80
2021,08,12,08,23,19.80
2021,08,12,08,24,19.90
2021,08,12,08,25,19.90
2021,08,12,08,26,19.90
2021,08,12,08,27,20.00
2021,08,12,08,28,20.00
2021,08,12,08,29,20.00
2021,08,12,08,30,20.10
2021,08,12,08,31,20.10
2021,08,12,08,32,20.20
2021,08,12,08,33,20.20
2021,08,12,08,34,20.20
2021,08,12,08,35,20.20
2021,08,12,08,36,20.30
2021,08,12,08,37,20.30
2021,08,12,08,38,20.40
2021,08,12,08,39,20.40
2021,08,12,08,40,20.50
2021,08,12,08,41,20.50
2021,08,12,08,42,20.60
2021,08,12,08,43,20.70
2021,08,12,08,44,20.70
2021,08,12,08,45,20.70
2021,08,12,08,46,20.70
2021,08,12,08,47,20.80
2021,08,12,08,48,20.80
2021,08,12,08,49,20.80
2021,08,12,08,50,20.80
2021,08,12,08,51,20.80
2021,08,12,08,52,20.90
2021,08,12,08,53,20.90
2021,08,12,08,54,21.00
2021,08,12,08,55,21.10
2021,08,12,08,56,21.10
2021,08,12,08,57,21.10
2021,08,12,08,58,21.20
2021,08,12,08,59,21.20
2021,08,12,09,00,21.30
2021,08,12,09,01,21.30
2021,08,12,09,02,21.30
2021,08,12,09,03,21.30
2021,08,12,09,04,21.40
2021,08,12,09,05,21.40
2021,08,12,09,06,21.40
2021,08,12,09,07,21.50
2021,08,12,09,08,21.50
2021,08,12,09,09,21.60
2021,08,12,09,10,21.60
2021,08,12,09,11,21.70
2021,08,12,09,12,21.70
2021,08,12,09,13,21.80
2021,08,12,09,14,21.80
2021,08,12,09,15,21.90
2021,08,12,09,16,21.90
2021,08,12,09,17,22.00
2021,08,12,09,18,22.00
2021,08,12,09,19,22.00
2021,08,12,09,20,22.10
2021,08,12,09,21,22.10
2021,08,12,09,22,22.10
2021,08,12,09,23,22.10
2021,08,12,09,24,22.10
2021,08,12,09,25,22.10
2021,08,12,09,26,22.10
2021,08,12,09,27,22.20
2021,08,12,09,28,22.20
2021,08,12,09,29,22.30
2021,08,12,09,30,22.30
2021,08,12,09,31,22.40
2021,08,12,09,32,22.40
2021,08,12,09,33,22.40
2021,08,12,09,34,22.40
2021,08,12,09,35,22.40
2021,08,12,09,36,22.40
2021,08,12,09,37,22.40
2021,08,12,09,38,22.40
2021,08,12,09,39,22.40
2021,08,12,09,40,22.40
2021,08,12,09,41,22.40
2021,08,12,09,42,22.50
2021,08,12,09,43,22.50
2021,08,12,09,44,22.50
2021,08,12,09,45,22.50
2021,08,12,09,46,22.50
2021,08,12,09,47,22.50
2021,08,12,09,48,22.60
2021,08,12,09,49,22.60
2021,08,12,09,50,22.70
2021,08,12,09,51,22.70
2021,08,12,09,52,22.70
2021,08,12,09,53,22.80
2021,08,12,09,54,22.80
2021,08,12,09,55,22.90
2021,08,12,09,56,22.90
2021,08,12,09,57,22.90
2021,08,12,09,58,23.00
2021,08,12,09,59,23.10
2021,08,12,10,00,23.10
2021,08,12,10,01,23.10
2021,08,12,10,02,23.10
2021,08,12,10,03,23.20
2021,08,12,10,04,23.20
2021,08,12,10,05,23.20
2021,08,12,10,06,23.20
2021,08,12,10,07,23.20
2021,08,12,10,08,23.30
2021,08,12,10,09,23.30
2021,08,12,10,10,23.30
2021,08,12,10,11,23.40
2021,08,12,10,12,23.40
2021,08,12,10,13,23.40
2021,08,12,10,14,23.50
2021,08,12,10,15,23.50
2021,08,12,10,16,23.60
2021,08,12,10,17,23.70
2021,08,12,10,18,23.70
2021,08,12,10,19,23.80
2021,08,12,10,20,23.80
2021,08,12,10,21,23.90
2021,08,12,10,22,23.90
2021,08,12,10,23,24.00
2021,08,12,10,24,24.10
2021,08,12,10,25,24.10
2021,08,12,10,26,24.10
2021,08,12,10,27,24.20
2021,08,12,10,28,24.20
2021,08,12,10,29,24.20
2021,08,12,10,30,24.20
2021,08,12,10,31,24.20
2021,08,12,10,32,24.30
2021,08,12,10,33,24.30
2021,08,12,10,34,24.40
2021,08,12,10,35,24.40
2021,08,12,10,36,24.50
2021,08,12,10,37,24.60
2021,08,12,10,38,24.60
2021,08,12,10,39,24.60
2021,08,12,10,40,24.70
2021,08,12,10,41,24.80
2021,08,12,10,42,24.80
2021,08,12,10,43,24.80
2021,08,12,10,44,24.80
2021,08,12,10,45,24.80
2021,08,12,10,46,24.80
2021,08,12,10,47,24.80
2021,08,12,10,48,24.90
2021,08,12,10,49,24.90
2021,08,12,10,50,24.90
2021,08,12,10,51,24.80
2021,08,12,10,52,24.90
2021,08,12,10,53,24.90
2021,08,12,10,54,24.90
2021,08,12,10,55,25.00
2021,08,12,10,56,25.10
2021,08,12,10,57,25.20
2021,08,12,10,58,25.20
2021,08,12,10,59,25.30
2021,08,12,11,00,25.40
2021,08,12,11,01,25.50
2021,08,12,11,02,25.60
2021,08,12,11,03,25.70
2021,08,12,11,04,25.80
2021,08,12,11,05,25.90
2021,08,12,11,06,26.10
2021,08,12,11,07,26.20
2021,08,12,11,08,26.40
2021,08,12,11,09,26.60
2021,08,12,11,10,26.70
2021,08,12,11,11,26.90
2021,08,12,11,12,27.00
2021,08,12,11,13,27.20
2021,08,12,11,14,27.30
2021,08,12,11,15,27.40
2021,08,12,11,16,27.60
2021,08,12,11,17,27.80
2021,08,12,11,18,28.00
2021,08,12,11,19,28.20
2021,08,12,11,20,28.30
2021,08,12,11,21,28.50
2021,08,12,11,22,28.50
2021,08,12,11,23,28.60
2021,08,12,11,24,28.50
2021,08,12,11,25,28.50
2021,08,12,11,26,28.50
2021,08,12,11,27,28.50
2021,08,12,11,28,28.60
2021,08,12,11,29,28.70
2021,08,12,11,30,28.70
2021,08,12,11,31,28.90
2021,08,12,11,32,29.00
2021,08,12,11,33,29.10
2021,08,12,11,34,29.20
2021,08,12,11,35,29.30
2021,08,12,11,36,29.50
2021,08,12,11,37,29.60
2021,08,12,11,38,29.80
2021,08,12,11,39,30.00
2021,08,12,11,40,30.10
2021,08,12,11,41,30.30
2021,08,12,11,42,30.40
2021,08,12,11,43,30.50
2021,08,12,11,44,30.60
2021,08,12,11,45,30.70
2021,08,12,11,46,30.80
2021,08,12,11,47,30.80
2021,08,12,11,48,30.90
2021,08,12,11,49,30.90
2021,08,12,11,50,30.90
2021,08,12,11,51,30.90
2021,08,12,11,52,30.90
2021,08,12,11,53,30.90
2021,08,12,11,54,30.90
2021,08,12,11,55,30.90
2021,08,12,11,56,30.90
2021,08,12,11,57,31.00
2021,08,12,11,58,31.00
2021,08,12,11,59,31.00
2021,08,12,12,00,31.00
2021,08,12,12,01,31.00
2021,08,12,12,02,31.00
2021,08,12,12,03,31.00
2021,08,12,12,04,31.10
2021,08,12,12,05,31.10
2021,08,12,12,06,31.30
2021,08,12,12,07,31.30
2021,08,12,12,08,31.30
2021,08,12,12,09,31.30
2021,08,12,12,10,31.30
2021,08,12,12,11,31.30
2021,08,12,12,12,31.30
2021,08,12,12,13,31.50
2021,08,12,12,14,31.60
2021,08,12,12,15,31.70
2021,08,12,12,16,31.80
2021,08,12,12,17,31.80
2021,08,12,12,18,31.80
2021,08,12,12,19,31.80
2021,08,12,12,20,31.70
2021,08,12,12,21,31.80
2021,08,12,12,22,31.80
2021,08,12,12,23,31.80
2021,08,12,12,24,31.90
2021,08,12,12,25,31.80
2021,08,12,12,26,31.80
2021,08,12,12,27,31.90
2021,08,12,12,28,31.80
2021,08,12,12,29,31.80
2021,08,12,12,30,31.80
2021,08,12,12,31,31.80
2021,08,12,12,32,31.70
2021,08,12,12,33,31.60
2021,08,12,12,34,31.60
2021,08,12,12,35,31.60
2021,08,12,12,36,31.60
2021,08,12,12,37,31.70
2021,08,12,12,38,31.70
2021,08,12,12,39,31.80
2021,08,12,12,40,31.80
2021,08,12,12,41,31.80
2021,08,12,12,42,31.90
2021,08,12,12,43,31.90
2021,08,12,12,44,32.00
2021,08,12,12,45,32.10
2021,08,12,12,46,32.20
2021,08,12,12,47,32.30
2021,08,12,12,48,32.30
2021,08,12,12,49,32.40
2021,08,12,12,50,32.50
2021,08,12,12,51,32.50
2021,08,12,12,52,32.50
2021,08,12,12,53,32.50
2021,08,12,12,54,32.50
2021,08,12,12,55,32.50
2021,08,12,12,56,32.60
2021,08,12,12,57,32.70
2021,08,12,12,58,32.70
2021,08,12,12,59,32.70
2021,08,12,13,00,32.70
2021,08,12,13,01,32.80
2021,08,12,13,02,32.90
2021,08,12,13,03,32.90
2021,08,12,13,04,32.90
2021,08,12,13,05,32.90
2021,08,12,13,06,32.90
2021,08,12,13,07,33.10
2021,08,12,13,08,33.10
2021,08,12,13,09,33.20
2021,08,12,13,10,33.30
2021,08,12,13,11,33.30
2021,08,12,13,12,33.30
2021,08,12,13,13,33.30
2021,08,12,13,14,33.30
2021,08,12,13,15,33.20
2021,08,12,13,16,33.10
2021,08,12,13,17,33.10
2021,08,12,13,18,33.10
2021,08,12,13,19,33.20
2021,08,12,13,20,33.20
2021,08,12,13,21,33.30
2021,08,12,13,22,33.40
2021,08,12,13,23,33.40
2021,08,12,13,24,33.30
2021,08,12,13,25,33.30
2021,08,12,13,26,33.30
2021,08,12,13,27,33.20
2021,08,12,13,28,33.20
2021,08,12,13,29,33.10
2021,08,12,13,30,32.90
2021,08,12,13,31,32.80
2021,08,12,13,32,32.80
2021,08,12,13,33,32.90
2021,08,12,13,34,32.90
2021,08,12,13,35,32.90
2021,08,12,13,36,33.00
2021,08,12,13,37,33.00
2021,08,12,13,38,33.10
2021,08,12,13,39,33.10
2021,08,12,13,40,33.10
2021,08,12,13,41,33.20
2021,08,12,13,42,33.20
2021,08,12,13,43,33.10
2021,08,12,13,44,33.10
2021,08,12,13,45,33.10
2021,08,12,13,46,33.00
2021,08,12,13,47,32.90
2021,08,12,13,48,32.80
2021,08,12,13,49,32.80
2021,08,12,13,50,32.80
2021,08,12,13,51,32.90
2021,08,12,13,52,33.00
2021,08,12,13,53,33.10
2021,08,12,13,54,33.10
2021,08,12,13,55,33.20
2021,08,12,13,56,33.30
2021,08,12,13,57,33.50
2021,08,12,13,58,33.50
2021,08,12,13,59,33.50
2021,08,12,14,00,33.50
2021,08,12,14,01,33.60
2021,08,12,14,02,33.60
2021,08,12,14,03,33.70
2021,08,12,14,04,33.80
2021,08,12,14,05,33.90
2021,08,12,14,06,34.00
2021,08,12,14,07,34.10
2021,08,12,14,08,34.10
2021,08,12,14,09,34.10
2021,08,12,14,10,34.10
2021,08,12,14,11,34.10
2021,08,12,14,12,34.20
2021,08,12,14,13,34.20
2021,08,12,14,14,34.20
2021,08,12,14,15,34.30
2021,08,12,14,16,34.30
2021,08,12,14,17,34.30
2021,08,12,14,18,34.20
2021,08,12,14,19,34.20
2021,08,12,14,20,34.10
2021,08,12,14,21,34.00
2021,08,12,14,22,34.00
2021,08,12,14,23,34.10
2021,08,12,14,24,34.20
2021,08,12,14,25,34.20
2021,08,12,14,26,34.20
2021,08,12,14,27,34.10
2021,08,12,14,28,34.10
2021,08,12,14,29,34.10
2021,08,12,14,30,34.10
2021,08,12,14,31,34.10
2021,08,12,14,32,34.20
2021,08,12,14,33,34.30
2021,08,12,14,34,34.30
2021,08,12,14,35,34.40
2021,08,12,14,36,34.40
2021,08,12,14,37,34.40
2021,08,12,14,38,34.40
2021,08,12,14,39,34.50
2021,08,12,14,40,34.60
2021,08,12,14,41,34.50
2021,08,12,14,42,34.50
2021,08,12,14,43,34.50
2021,08,12,14,44,34.50
2021,08,12,14,45,34.40
2021,08,12,14,46,34.30
2021,08,12,14,47,34.20
2021,08,12,14,48,34.10
2021,08,12,14,49,34.20
2021,08,12,14,50,34.20
2021,08,12,14,51,34.20
2021,08,12,14,52,34.30
2021,08,12,14,53,34.20
2021,08,12,14,54,34.10
2021,08,12,14,55,34.10
2021,08,12,14,56,34.00
2021,08,12,14,57,33.90
2021,08,12,14,58,33.90
2021,08,12,14,59,33.80
2021,08,12,15,00,33.80
2021,08,12,15,01,33.80
2021,08,12,15,02,33.80
2021,08,12,15,03,33.80
2021,08,12,15,04,33.80
2021,08,12,15,05,33.80
2021,08,12,15,06,33.90
2021,08,12,15,07,33.90
2021,08,12,15,08,34.00
2021,08,12,15,09,34.00
2021,08,12,15,10,34.00
2021,08,12,15,11,33.90
2021,08,12,15,12,33.90
2021,08,12,15,13,33.80
2021,08,12,15,14,33.70
2021,08,12,15,15,33.70
2021,08,12,15,16,33.70
2021,08,12,15,17,33.70
2021,08,12,15,18,33.70
2021,08,12,15,19,33.80
2021,08,12,15,20,33.90
2021,08,12,15,21,33.90
2021,08,12,15,22,34.00
2021,08,12,15,23,34.00
2021,08,12,15,24,34.00
2021,08,12,15,25,34.00
2021,08,12,15,26,34.10
2021,08,12,15,27,34.20
2021,08,12,15,28,34.30
2021,08,12,15,29,34.30
2021,08,12,15,30,34.20
2021,08,12,15,31,34.20
2021,08,12,15,32,34.10
2021,08,12,15,33,34.10
2021,08,12,15,34,34.10
2021,08,12,15,35,34.20
2021,08,12,15,36,34.20
2021,08,12,15,37,34.30
2021,08,12,15,38,34.30
2021,08,12,15,39,34.30
2021,08,12,15,40,34.40
2021,08,12,15,41,34.40
2021,08,12,15,42,34.50
2021,08,12,15,43,34.50
2021,08,12,15,44,34.50
2021,08,12,15,45,34.50
2021,08,12,15,46,34.40
2021,08,12,15,47,34.50
2021,08,12,15,48,34.60
2021,08,12,15,49,34.70
2021,08,12,15,50,34.80
2021,08,12,15,51,34.80
2021,08,12,15,52,34.90
2021,08,12,15,53,34.90
2021,08,12,15,54,34.80
2021,08,12,15,55,34.80
2021,08,12,15,56,34.80
2021,08,12,15,57,34.80
2021,08,12,15,58,34.80
2021,08,12,15,59,34.80
2021,08,12,16,00,34.80
2021,08,12,16,01,34.80
2021,08,12,16,02,34.80
2021,08,12,16,03,34.80
2021,08,12,16,04,34.90
2021,08,12,16,05,35.00
2021,08,12,16,06,35.10
2021,08,12,16,07,35.10
2021,08,12,16,08,35.10
2021,08,12,16,09,35.10
2021,08,12,16,10,35.10
2021,08,12,16,11,35.20
2021,08,12,16,12,35.20
2021,08,12,16,13,35.10
2021,08,12,16,14,35.20
2021,08,12,16,15,35.20
2021,08,12,16,16,35.20
2021,08,12,16,17,35.20
2021,08,12,16,18,35.20
2021,08,12,16,19,35.20
2021,08,12,16,20,35.10
2021,08,12,16,21,35.10
2021,08,12,16,22,35.00
2021,08,12,16,23,35.00
2021,08,12,16,24,35.00
2021,08,12,16,25,35.10
2021,08,12,16,26,35.10
2021,08,12,16,27,35.20
2021,08,12,16,28,35.20
2021,08,12,16,29,35.30
2021,08,12,16,30,35.20
2021,08,12,16,31,35.10
2021,08,12,16,32,35.00
2021,08,12,16,33,34.90
2021,08,12,16,34,34.80
2021,08,12,16,35,34.70
2021,08,12,16,36,34.60
2021,08,12,16,37,34.60
2021,08,12,16,38,34.60
2021,08,12,16,39,34.70
2021,08,12,16,40,34.60
2021,08,12,16,41,34.60
2021,08,12,16,42,34.50
2021,08,12,16,43,34.40
2021,08,12,16,44,34.40
2021,08,12,16,45,34.40
2021,08,12,16,46,34.40
2021,08,12,16,47,34.40
2021,08,12,16,48,34.40
2021,08,12,16,49,34.40
2021,08,12,16,50,34.40
2021,08,12,16,51,34.50
2021,08,12,16,52,34.60
2021,08,12,16,53,34.70
2021,08,12,16,54,34.80
2021,08,12,16,55,34.90
2021,08,12,16,56,35.00
2021,08,12,16,57,35.00
2021,08,12,16,58,35.00
2021,08,12,16,59,34.90
2021,08,12,17,00,34.90
2021,08,12,17,01,34.90
2021,08,12,17,02,34.80
2021,08,12,17,03,34.80
2021,08,12,17,04,34.80
2021,08,12,17,05,34.80
2021,08,12,17,06,34.80
2021,08,12,17,07,34.70
2021,08,12,17,08,34.70
2021,08,12,17,09,34.80
2021,08,12,17,10,34.80
2021,08,12,17,11,34.80
2021,08,12,17,12,34.90
2021,08,12,17,13,35.00
2021,08,12,17,14,35.10
2021,08,12,17,15,35.20
2021,08,12,17,16,35.30
2021,08,12,17,17,35.40
2021,08,12,17,18,35.40
2021,08,12,17,19,35.50